EW9154 Weather Reports


time (UTC)temp
F
wind
direction
speed
knots
gust
knots
rain 1hr
in
rain 24hr
in
rain mn
in
humidity
%
barometer
mb
20260902060734 73 13 0.0 0.0 0.00 0.00 0.00 82 1028.2
20260902060222 73 13 0.0 0.0 0.00 0.00 0.00 81 1027.7
20260902055701 73 40 0.0 0.0 0.00 0.00 0.00 80 1027.2
20260902055201 73 40 0.0 0.0 0.00 0.00 0.00 79 1026.8
20260902054659 73 40 0.0 0.0 0.00 0.00 0.00 79 1026.3
20260902054427 73 32 0.0 0.0 0.00 0.00 0.00 80 1025.9
20260902054144 73 28 0.0 0.0 0.00 0.00 0.00 81 1025.9
20260902053139 73 21 0.0 0.0 0.00 0.00 0.00 81 1026.3
20260902052638 73 22 0.0 0.0 0.00 0.00 0.00 81 1026.5
20260902052116 74 224 0.0 0.0 0.00 0.00 0.00 79 1026.7
20260902051846 74 224 0.0 0.0 0.00 0.00 0.00 79 1026.8
20260902051114 74 224 0.0 0.0 0.00 0.00 0.00 79 1027.0
20260902050615 74 224 0.0 0.0 0.00 0.00 0.00 78 1027.8
20260902050344 74 224 0.0 0.0 0.00 0.00 0.00 78 1027.9
20260902045609 74 224 0.0 0.0 0.00 0.00 0.00 78 1028.1
20260902045106 74 224 0.0 0.0 0.00 0.00 0.00 78 1028.0
20260902044550 74 224 0.0 0.0 0.00 0.00 0.00 78 1027.4
20260902044048 74 224 0.0 0.0 0.00 0.00 0.00 77 1026.8
20260902043543 74 224 0.0 0.0 0.00 0.00 0.00 78 1026.8
20260902043313 74 224 0.0 0.0 0.00 0.00 0.00 79 1026.7
20260902042540 74 224 0.0 0.0 0.00 0.00 0.00 81 1026.5
20260902042038 74 224 0.0 0.0 0.00 0.00 0.00 81 1026.5
20260902041539 74 224 0.0 0.0 0.00 0.00 0.00 83 1026.6
20260902041040 74 224 0.0 0.0 0.00 0.00 0.00 83 1026.4
20260902040516 74 224 0.0 0.0 0.00 0.00 0.00 82 1026.4
20260902040244 74 224 0.0 0.0 0.00 0.00 0.00 81 1026.5
20260902035449 75 224 0.0 0.0 0.00 0.00 0.00 81 1026.6
20260902034924 75 224 0.0 0.0 0.00 0.00 0.00 82 1026.5
20260902034419 75 224 0.0 0.0 0.00 0.00 0.00 81 1026.4
20260902033916 75 224 0.0 0.0 0.00 0.00 0.00 79 1026.6
20260902033402 75 224 0.0 0.0 0.00 0.00 0.00 76 1026.7
20260902032901 75 224 0.0 0.0 0.00 0.00 0.00 75 1026.9
20260902032355 75 224 0.0 0.0 0.00 0.00 0.00 74 1027.3
20260902031854 75 224 0.0 0.0 0.00 0.00 0.00 75 1027.4
20260902031328 76 224 0.0 0.0 0.00 0.00 0.00 75 1027.4
20260902030807 76 224 0.0 0.0 0.00 0.00 0.00 75 1027.4
20260902030542 76 224 0.0 0.0 0.00 0.00 0.00 75 1027.3
20260902025744 76 224 0.0 0.0 0.00 0.00 0.00 75 1027.3
20260902025215 76 224 0.0 0.0 0.00 0.00 0.00 75 1027.2
20260902024714 76 224 0.0 0.0 0.00 0.00 0.00 75 1027.0
20260902024147 76 224 0.0 0.0 0.00 0.00 0.00 75 1027.0
20260902023620 76 224 0.0 0.0 0.00 0.00 0.00 74 1027.0
20260902023109 76 224 0.0 0.0 0.00 0.00 0.00 74 1027.0
20260902022608 76 224 0.0 0.0 0.00 0.00 0.00 74 1026.9
20260902022104 76 224 0.0 0.0 0.00 0.00 0.00 74 1026.9
20260902021832 76 224 0.0 0.0 0.00 0.00 0.00 74 1026.9
20260902021040 77 224 0.0 0.0 0.00 0.00 0.00 74 1027.0
20260902020540 77 224 0.0 0.0 0.00 0.00 0.00 73 1027.2
20260902020041 77 224 0.0 0.0 0.00 0.00 0.00 73 1027.0
20260902015810 77 224 0.0 0.0 0.00 0.00 0.00 72 1027.0
20260902015307 77 224 0.0 0.0 0.00 0.00 0.00 72 1027.0
20260902014534 77 224 0.0 0.0 0.00 0.00 0.00 73 1026.9
20260902014029 77 224 0.0 0.0 0.00 0.00 0.00 73 1026.8
20260902013527 77 224 0.0 0.0 0.00 0.00 0.00 72 1026.7
20260902013000 78 224 0.0 0.0 0.00 0.00 0.00 72 1026.7
20260902012424 78 224 0.0 0.0 0.00 0.00 0.00 72 1026.8
20260902011906 78 224 0.0 0.0 0.00 0.00 0.00 72 1026.8
20260902011407 78 224 0.0 0.0 0.00 0.00 0.00 71 1026.8
20260902010905 78 224 0.0 0.0 0.00 0.00 0.00 71 1026.7
20260902010638 79 224 0.0 0.0 0.00 0.00 0.00 70 1026.6
20260902005847 79 224 0.0 0.0 0.00 0.00 0.00 69 1026.7
20260902005536 79 224 0.0 0.0 0.00 0.00 0.00 68 1026.6
20260902004801 79 224 0.0 0.0 0.00 0.00 0.00 68 1026.6
20260902004259 80 224 0.0 0.0 0.00 0.00 0.00 68 1026.6
20260902003755 80 224 0.0 0.0 0.00 0.00 0.00 67 1026.7
20260902003254 80 224 0.0 0.0 0.00 0.00 0.00 66 1026.6
20260902002733 80 224 0.0 0.0 0.00 0.00 0.00 66 1026.6
20260902002153 81 224 0.0 0.0 0.00 0.00 0.00 66 1026.7
20260902001649 81 224 0.0 0.0 0.00 0.00 0.00 65 1026.7
20260902001146 81 224 0.0 0.0 0.00 0.00 0.00 65 1026.8
20260902000642 81 224 0.0 0.0 0.00 0.00 0.00 65 1026.9
20260902000141 81 224 0.0 0.0 0.00 0.00 0.00 65 1026.9
20260901235621 81 224 0.0 0.0 0.00 0.00 0.00 64 1027.0
20260901235317 81 224 0.0 0.0 0.00 0.00 0.00 63 1027.0
20260901234545 82 224 0.0 0.0 0.00 0.00 0.00 62 1027.0
20260901234522 82 224 0.0 0.0 0.00 0.00 0.00 62 1027.0
20260901233451 82 224 0.0 0.0 0.00 0.00 0.00 61 1027.0
20260901233220 82 224 0.0 0.0 0.00 0.00 0.00 61 1027.0
20260901232423 82 224 0.0 0.0 0.00 0.00 0.00 61 1027.0
20260901231910 82 224 0.0 0.0 0.00 0.00 0.00 61 1026.9
20260901231411 82 224 0.0 0.0 0.00 0.00 0.00 61 1027.0
20260901230847 82 224 0.0 0.0 0.00 0.00 0.00 60 1026.9
20260901230319 83 224 0.0 0.0 0.00 0.00 0.00 60 1026.9
20260901230049 83 224 0.0 0.0 0.00 0.00 0.00 60 1026.9
20260901225250 83 224 0.0 0.0 0.00 0.00 0.00 61 1027.0
20260901224751 83 224 0.0 0.0 0.00 0.00 0.00 60 1027.0
20260901224747 83 224 0.0 0.0 0.00 0.00 0.00 61 1027.0
20260901223741 83 224 0.0 0.0 0.00 0.00 0.00 59 1027.0
20260901223233 83 224 0.0 0.0 0.00 0.00 0.00 59 1027.0
20260901222732 83 224 0.0 0.0 0.00 0.00 0.00 58 1027.0
20260901222227 84 224 0.0 0.0 0.00 0.00 0.00 58 1027.0
20260901221726 84 224 0.0 0.0 0.00 0.00 0.00 57 1027.0
20260901221428 84 224 0.0 0.0 0.00 0.00 0.00 56 1026.9
20260901220655 84 224 0.0 0.0 0.00 0.00 0.00 57 1027.0
20260901220126 84 224 0.0 0.0 0.00 0.00 0.00 57 1027.0
20260901215602 84 224 0.0 0.0 0.00 0.00 0.00 55 1026.9
20260901215033 85 224 0.0 0.0 0.00 0.00 0.00 56 1027.0
20260901214532 85 224 0.0 0.0 0.00 0.00 0.00 56 1026.9
20260901214003 85 224 0.0 0.0 0.00 0.00 0.00 55 1026.9
20260901213502 85 224 0.0 0.0 0.00 0.00 0.00 55 1026.9
20260901213219 85 224 0.0 0.0 0.00 0.00 0.00 55 1026.9
20260901212721 85 224 0.0 0.0 0.00 0.00 0.00 56 1026.9
20260901211926 85 224 0.0 0.0 0.00 0.00 0.00 55 1026.9
20260901211359 85 224 0.0 0.0 0.00 0.00 0.00 56 1026.9
20260901210831 84 224 0.0 0.0 0.00 0.00 0.00 55 1027.0
20260901210329 84 224 0.0 0.0 0.00 0.00 0.00 55 1026.9
20260901205801 84 224 0.0 0.0 0.00 0.00 0.00 55 1026.9
20260901205257 84 224 0.0 0.0 0.00 0.00 0.00 55 1026.9
20260901204748 85 224 0.0 0.0 0.00 0.00 0.00 57 1026.9
20260901204247 85 224 0.0 0.0 0.00 0.00 0.00 56 1026.9
20260901203721 85 224 0.0 0.0 0.00 0.00 0.00 57 1026.8
20260901203153 85 224 0.0 0.0 0.00 0.00 0.00 52 1027.0
20260901202650 85 224 0.0 0.0 0.00 0.00 0.00 53 1027.3
20260901202352 85 224 0.0 0.0 0.00 0.00 0.00 52 1027.4
20260901201613 85 224 0.0 0.0 0.00 0.00 0.00 52 1027.6
20260901201110 85 224 0.0 0.0 0.00 0.00 0.00 53 1027.5
20260901200553 85 224 0.0 0.0 0.00 0.00 0.00 54 1027.4
20260901200548 85 224 0.0 0.0 0.00 0.00 0.00 53 1027.5
20260901195545 85 224 0.0 0.0 0.00 0.00 0.00 52 1027.3
20260901195027 85 224 0.0 0.0 0.00 0.00 0.00 53 1027.3
20260901194531 85 224 0.0 0.0 0.00 0.00 0.00 54 1027.4
20260901194234 85 224 0.0 0.0 0.00 0.00 0.00 55 1027.5
20260901193502 85 224 0.0 0.0 0.00 0.00 0.00 53 1027.7
20260901192944 85 247 0.0 0.0 0.00 0.00 0.00 53 1027.8
20260901192439 86 213 0.0 0.0 0.00 0.00 0.00 53 1027.6
20260901191939 86 215 0.0 0.0 0.00 0.00 0.00 52 1027.7
20260901191415 87 226 0.0 0.0 0.00 0.00 0.00 49 1027.8
20260901190913 88 234 0.0 0.0 0.00 0.00 0.00 48 1027.7
20260901190416 88 234 0.0 0.0 0.00 0.00 0.00 48 1027.8
20260901185852 88 234 0.0 0.0 0.00 0.00 0.00 47 1027.8
20260901185325 89 234 0.0 0.0 0.00 0.00 0.00 45 1027.8
20260901184807 90 234 0.0 0.0 0.00 0.00 0.00 45 1027.8
20260901184801 89 234 0.0 0.0 0.00 0.00 0.00 45 1027.7
20260901183802 90 234 0.0 0.0 0.00 0.00 0.00 43 1027.7
20260901183510 91 234 0.0 0.0 0.00 0.00 0.00 42 1027.3
20260901182739 91 234 0.0 0.0 0.00 0.00 0.00 45 1027.5
20260901182218 90 234 0.0 0.0 0.00 0.00 0.00 44 1027.5
20260901181716 89 234 0.0 0.0 0.00 0.00 0.00 47 1027.7
20260901181210 89 234 0.0 0.0 0.00 0.00 0.00 45 1027.9
20260901181151 89 234 0.0 0.0 0.00 0.00 0.00 48 1028.0
20260901180129 88 234 0.0 0.0 0.00 0.00 0.00 50 1028.1
20260901175603 87 234 0.0 0.0 0.00 0.00 0.00 49 1028.1
20260901175048 88 234 0.0 0.0 0.00 0.00 0.00 47 1028.3
20260901175044 87 234 0.0 0.0 0.00 0.00 0.00 47 1028.2
20260901174043 88 234 0.0 0.0 0.00 0.00 0.00 46 1028.3
20260901173518 88 234 0.0 0.0 0.00 0.00 0.00 45 1028.2
20260901172953 87 234 0.0 0.0 0.00 0.00 0.00 47 1028.4
20260901172430 87 234 0.0 0.0 0.00 0.00 0.00 48 1028.5
20260901171930 87 234 0.0 0.0 0.00 0.00 0.00 45 1028.5
20260901171432 88 234 0.0 0.0 0.00 0.00 0.00 46 1028.5
20260901170922 87 234 0.0 0.0 0.00 0.00 0.00 45 1028.5
20260901170906 87 234 0.0 0.0 0.00 0.00 0.00 47 1028.5
20260901170545 87 234 0.0 0.0 0.00 0.00 0.00 50 1028.5
20260901165249 87 234 0.0 0.0 0.00 0.00 0.00 49 1028.5
20260901164720 86 234 0.0 0.0 0.00 0.00 0.00 51 1028.5
20260901164155 85 233 0.0 0.0 0.00 0.00 0.00 53 1028.6
20260901163920 84 233 0.0 0.0 0.00 0.00 0.00 53 1028.6
20260901163146 84 208 0.0 0.0 0.00 0.00 0.00 53 1028.7
20260901162620 83 208 0.0 0.0 0.00 0.00 0.00 55 1028.6
20260901162055 82 208 0.0 0.0 0.00 0.00 0.00 56 1028.6
20260901161528 82 208 0.0 0.0 0.00 0.00 0.00 56 1028.6
20260901161026 82 227 0.0 0.0 0.00 0.00 0.00 56 1028.6
20260901160518 82 229 0.0 0.0 0.00 0.00 0.00 59 1028.6
20260901160014 82 228 0.0 0.0 0.00 0.00 0.00 58 1028.5
20260901155743 82 228 0.0 0.0 0.00 0.00 0.00 60 1028.4
20260901154944 81 228 0.0 0.0 0.00 0.00 0.00 61 1028.5
20260901154713 81 235 0.0 0.0 0.00 0.00 0.00 61 1028.4
20260901153914 80 235 0.0 0.0 0.00 0.00 0.00 63 1028.3
20260901153404 80 235 0.0 0.0 0.00 0.00 0.00 65 1028.4
20260901152900 79 235 0.0 0.0 0.00 0.00 0.00 65 1028.4
20260901152358 78 235 0.0 0.0 0.00 0.00 0.00 66 1028.6
20260901151857 78 235 0.0 0.0 0.00 0.00 0.00 68 1028.5
20260901151352 78 229 0.0 0.0 0.00 0.00 0.00 69 1028.5
20260901150848 77 225 0.0 0.0 0.00 0.00 0.00 70 1028.4
20260901150341 77 225 0.0 0.0 0.00 0.00 0.00 70 1028.6
20260901145837 76 259 0.0 0.0 0.00 0.00 0.00 72 1028.6
20260901145335 76 259 0.0 0.0 0.00 0.00 0.00 74 1028.6
20260901144806 75 265 0.0 0.0 0.00 0.00 0.00 75 1028.8
20260901144240 74 265 0.0 0.0 0.00 0.00 0.00 77 1028.7
20260901143714 74 266 0.0 0.9 0.00 0.00 0.00 77 1028.8
20260901143443 73 266 0.0 0.9 0.00 0.00 0.00 77 1028.8
20260901142710 73 199 0.0 0.0 0.00 0.00 0.00 80 1028.8
20260901142700 72 199 0.0 0.0 0.00 0.00 0.00 80 1028.7
20260901141701 72 221 0.0 0.0 0.00 0.00 0.00 80 1028.7
20260901141132 71 220 0.0 0.0 0.00 0.00 0.00 82 1028.9
20260901140859 71 213 0.0 0.0 0.00 0.00 0.00 82 1028.8
20260901140118 70 213 0.0 0.0 0.00 0.00 0.00 84 1028.9
20260901135550 69 209 0.0 0.0 0.00 0.00 0.00 84 1028.8
20260901135046 69 227 0.0 0.0 0.00 0.00 0.00 86 1028.8
20260901134522 68 230 0.0 0.0 0.00 0.00 0.00 87 1028.9
20260901134016 68 230 0.0 0.0 0.00 0.00 0.00 88 1029.0
20260901133515 67 231 0.0 0.0 0.00 0.00 0.00 89 1029.0
20260901133245 67 232 0.0 0.0 0.00 0.00 0.00 90 1029.0
20260901132511 67 228 0.0 0.0 0.00 0.00 0.00 90 1029.0
20260901132011 67 228 0.0 0.0 0.00 0.00 0.00 90 1029.0
20260901131736 66 228 0.0 0.0 0.00 0.00 0.00 91 1028.9
20260901131236 66 228 0.0 0.0 0.00 0.00 0.00 91 1028.8
20260901130447 66 228 0.0 0.0 0.00 0.00 0.00 91 1028.8
20260901125951 66 229 0.0 0.0 0.00 0.00 0.00 91 1028.7
20260901125422 65 229 0.0 0.0 0.00 0.00 0.00 91 1028.6
20260901124921 65 229 0.0 0.0 0.00 0.00 0.00 91 1028.7
20260901124559 65 229 0.0 0.0 0.00 0.00 0.00 91 1028.5
20260901124445 65 229 0.0 0.0 0.00 0.00 0.00 91 1028.6
20260901123325 65 229 0.0 0.0 0.00 0.00 0.00 91 1028.5
20260901123042 65 229 0.0 0.0 0.00 0.00 0.00 91 1028.5
20260901122308 65 229 0.0 0.0 0.00 0.00 0.00 91 1028.5
20260901121806 65 229 0.0 0.0 0.00 0.00 0.00 91 1028.5
20260901121238 65 229 0.0 0.0 0.00 0.00 0.00 91 1028.4
20260901121006 65 229 0.0 0.0 0.00 0.00 0.00 91 1028.4
20260901120211 65 229 0.0 0.0 0.00 0.00 0.00 91 1028.3
20260901115659 65 229 0.0 0.0 0.00 0.00 0.00 91 1028.3
20260901115157 65 229 0.0 0.0 0.00 0.00 0.00 91 1028.2
20260901114629 65 229 0.0 0.0 0.00 0.00 0.00 90 1028.1
20260901114102 65 229 0.0 0.0 0.00 0.00 0.00 90 1028.1
20260901113532 65 229 0.0 0.0 0.00 0.00 0.00 91 1028.0
20260901113008 66 229 0.0 0.0 0.00 0.00 0.00 91 1028.0
20260901112508 66 229 0.0 0.0 0.00 0.00 0.00 91 1027.9
20260901112240 66 229 0.0 0.0 0.00 0.00 0.00 91 1027.7
20260901111442 66 229 0.0 0.0 0.00 0.00 0.00 91 1027.6
20260901110940 66 229 0.0 0.0 0.00 0.00 0.00 91 1027.4
20260901110415 66 229 0.0 0.0 0.00 0.00 0.00 91 1027.4
20260901105853 66 229 0.0 0.0 0.00 0.00 0.00 91 1027.4
20260901105629 66 229 0.0 0.0 0.00 0.00 0.00 91 1027.5
20260901104831 66 229 0.0 0.0 0.00 0.00 0.00 91 1027.5
20260901104302 66 230 0.0 0.0 0.00 0.00 0.00 91 1027.5
20260901104030 66 230 0.0 0.0 0.00 0.00 0.00 91 1027.6
20260901103229 66 230 0.0 0.0 0.00 0.00 0.00 91 1027.6
20260901102702 66 230 0.0 0.0 0.00 0.00 0.00 91 1027.4
20260901102419 66 235 0.0 0.0 0.00 0.00 0.00 92 1027.5
20260901101647 66 235 0.0 0.0 0.00 0.00 0.00 92 1027.4
20260901101125 66 235 0.0 0.0 0.00 0.00 0.00 92 1027.3
20260901100623 66 235 0.0 0.0 0.00 0.00 0.00 91 1027.3
20260901100356 66 235 0.0 0.0 0.00 0.00 0.00 91 1027.3
20260901095624 66 235 0.0 0.0 0.00 0.00 0.00 91 1027.3
20260901095125 66 235 0.0 0.0 0.00 0.00 0.00 91 1027.4
20260901094605 66 235 0.0 0.0 0.00 0.00 0.00 91 1027.3
20260901094104 66 235 0.0 0.0 0.00 0.00 0.00 91 1027.4
20260901093529 66 235 0.0 0.0 0.00 0.00 0.00 91 1027.3
20260901093028 66 235 0.0 0.0 0.00 0.00 0.00 90 1027.3
20260901092515 66 235 0.0 0.0 0.00 0.00 0.00 90 1027.3
20260901092014 67 235 0.0 0.0 0.00 0.00 0.00 90 1027.3
20260901091449 67 235 0.0 0.0 0.00 0.00 0.00 90 1027.3
20260901090927 67 235 0.0 0.0 0.00 0.00 0.00 90 1027.2
20260901090426 67 235 0.0 0.0 0.00 0.00 0.00 90 1027.0
20260901085914 67 235 0.0 0.0 0.00 0.00 0.00 90 1027.2
20260901085413 67 235 0.0 0.0 0.00 0.00 0.00 90 1027.3
20260901084915 67 235 0.0 0.0 0.00 0.00 0.00 90 1027.2
20260901084404 67 235 0.0 0.0 0.00 0.00 0.00 90 1027.3
20260901083905 67 235 0.0 0.0 0.00 0.00 0.00 90 1027.4
20260901083349 67 235 0.0 0.0 0.00 0.00 0.00 90 1027.3
20260901082852 67 235 0.0 0.0 0.00 0.00 0.00 90 1027.3
20260901082339 67 235 0.0 0.0 0.00 0.00 0.00 89 1027.3
20260901081821 68 235 0.0 0.0 0.00 0.00 0.00 89 1027.2
20260901081553 68 235 0.0 0.0 0.00 0.00 0.00 89 1027.2
20260901080802 68 235 0.0 0.0 0.00 0.00 0.00 89 1027.3
20260901080258 68 235 0.0 0.0 0.00 0.00 0.00 89 1027.3
20260901075801 68 235 0.0 0.0 0.00 0.00 0.00 88 1027.3
20260901075238 68 235 0.0 0.0 0.00 0.00 0.00 88 1027.3
20260901074739 68 235 0.0 0.0 0.00 0.00 0.00 88 1027.2
20260901074220 68 235 0.0 0.0 0.00 0.00 0.00 88 1027.2
20260901073721 68 235 0.0 0.0 0.00 0.00 0.00 87 1027.3
20260901073221 69 235 0.0 0.0 0.00 0.00 0.00 86 1027.3
20260901072659 69 235 0.0 0.0 0.00 0.00 0.00 86 1027.3
20260901072200 69 235 0.0 0.0 0.00 0.00 0.00 86 1027.4
20260901071639 69 235 0.0 0.0 0.00 0.00 0.00 86 1027.4
20260901071126 69 235 0.0 0.0 0.00 0.00 0.00 86 1027.5
20260901070623 69 235 0.0 0.0 0.00 0.00 0.00 86 1027.7
20260901070059 69 235 0.0 0.0 0.00 0.00 0.00 86 1027.7
20260901065535 69 235 0.0 0.0 0.00 0.00 0.00 86 1027.7
20260901065021 69 235 0.0 0.0 0.00 0.00 0.00 86 1027.7
20260901064524 69 235 0.0 0.0 0.00 0.00 0.00 86 1027.7
20260901064008 69 235 0.0 0.0 0.00 0.00 0.00 86 1027.9
20260901063504 69 235 0.0 0.0 0.00 0.00 0.00 86 1027.8
20260901063004 69 235 0.0 0.0 0.00 0.00 0.00 86 1027.9
20260901062726 69 235 0.0 0.0 0.00 0.00 0.00 86 1027.9
20260901062226 69 235 0.0 0.0 0.00 0.00 0.00 86 1027.9
20260901061725 70 235 0.0 0.0 0.00 0.00 0.00 86 1027.9
20260901060942 70 235 0.0 0.0 0.00 0.00 0.00 85 1027.9